Tracking 18816 objects as of 18-October-2017
HD Live streaming from Space Station
objects crossing your sky now

SL-3 R/B

Track SL-3 R/B now!
10-day predictions


NORAD ID: 8027
Int'l Code: 1975-064B
Perigee: 835.6 km
Apogee: 915.9 km
Inclination: 81.3 °
Period: 102.3 minutes
Semi major axis: 7246 km
RCS: 6.004 m2 (large)
Launch date: July 11, 1975
Source: Commonwealth of Independent States (former USSR) (CIS)
Launch site: PLESETSK MISSILE AND SPACE COMPLEX (PKMTR)

Note: This is a ROCKET BODY
aabbcc
Your satellite tracking list
Your tracking list is empty





NASA's NSSDC Master Catalog

Two Line Element Set (TLE):
1 08027U 75064B   17291.18772845  .00000101  00000-0  52527-4 0  9998
2 08027  81.2934 297.2186 0055365 281.1323  78.3624 14.07308374169772
Source of the keplerian elements: AFSPC